TimeEDT,TemperatureF,Dew PointF,Humidity,Sea Level PressureIn,VisibilityMPH,Wind Direction,Wind SpeedMPH,Gust SpeedMPH,PrecipitationIn,Events,Conditions,WindDirDegrees,DateUTC
12:18 AM,33.8,30.2,87,29.92,8.0,Calm,Calm,-,N/A,,Overcast,0,2013-03-28 04:18:00
12:54 AM,33.1,32.0,96,29.95,9.0,Calm,Calm,-,N/A,,Overcast,0,2013-03-28 04:54:00
1:54 AM,33.1,30.9,92,29.95,8.0,Calm,Calm,-,N/A,,Overcast,0,2013-03-28 05:54:00
2:54 AM,33.1,30.9,92,29.95,10.0,Calm,Calm,-,N/A,,Overcast,0,2013-03-28 06:54:00
3:54 AM,33.1,30.9,92,29.96,10.0,Calm,Calm,-,N/A,,Overcast,0,2013-03-28 07:54:00
4:05 AM,33.8,30.2,87,29.93,10.0,Calm,Calm,-,N/A,,Overcast,0,2013-03-28 08:05:00
4:34 AM,33.8,30.2,87,29.93,6.0,Calm,Calm,-,N/A,,Overcast,0,2013-03-28 08:34:00
4:54 AM,33.1,30.9,92,29.96,6.0,Calm,Calm,-,N/A,,Overcast,0,2013-03-28 08:54:00
5:34 AM,33.8,30.2,87,29.94,7.0,Calm,Calm,-,0.00,,Overcast,0,2013-03-28 09:34:00
5:54 AM,33.1,30.9,92,29.97,8.0,Calm,Calm,-,0.00,,Overcast,0,2013-03-28 09:54:00
6:43 AM,33.8,30.2,87,29.96,8.0,Calm,Calm,-,N/A,,Overcast,0,2013-03-28 10:43:00
6:52 AM,33.8,30.2,87,29.96,7.0,Calm,Calm,-,N/A,,Overcast,0,2013-03-28 10:52:00
6:54 AM,33.1,30.9,92,29.99,7.0,Calm,Calm,-,N/A,,Overcast,0,2013-03-28 10:54:00
7:19 AM,33.8,30.2,87,29.97,5.0,Calm,Calm,-,N/A,,Overcast,0,2013-03-28 11:19:00
7:25 AM,33.8,30.2,87,29.97,5.0,Calm,Calm,-,N/A,,Overcast,0,2013-03-28 11:25:00
7:37 AM,33.8,32.0,93,29.98,7.0,Calm,Calm,-,N/A,,Overcast,0,2013-03-28 11:37:00
7:44 AM,33.8,32.0,93,29.98,8.0,Calm,Calm,-,N/A,,Overcast,0,2013-03-28 11:44:00
7:54 AM,34.0,32.0,92,30.01,7.0,Calm,Calm,-,N/A,,Overcast,0,2013-03-28 11:54:00
8:23 AM,33.8,32.0,93,29.98,8.0,Calm,Calm,-,N/A,,Overcast,0,2013-03-28 12:23:00
8:54 AM,35.1,33.1,92,30.01,10.0,Calm,Calm,-,N/A,,Overcast,0,2013-03-28 12:54:00
9:29 AM,35.6,33.8,93,29.98,10.0,South,3.5,-,N/A,,Overcast,190,2013-03-28 13:29:00
9:54 AM,36.0,32.0,86,30.01,10.0,Calm,Calm,-,N/A,,Overcast,0,2013-03-28 13:54:00
10:54 AM,39.0,32.0,76,30.02,10.0,NNE,4.6,-,N/A,,Overcast,30,2013-03-28 14:54:00
11:12 AM,39.2,32.0,75,30.00,10.0,NNE,9.2,-,N/A,,Overcast,20,2013-03-28 15:12:00
11:41 AM,39.2,32.0,75,30.00,10.0,NNE,5.8,-,N/A,,Overcast,30,2013-03-28 15:41:00
11:54 AM,39.9,32.0,73,30.03,10.0,NNE,5.8,-,N/A,,Overcast,20,2013-03-28 15:54:00
12:41 PM,42.8,33.8,70,29.99,10.0,NNE,8.1,-,N/A,,Scattered Clouds,20,2013-03-28 16:41:00
12:54 PM,43.0,33.1,68,30.02,10.0,NNE,8.1,-,0.01,,Scattered Clouds,20,2013-03-28 16:54:00
1:54 PM,44.1,32.0,63,30.02,10.0,NW,8.1,16.1,N/A,,Scattered Clouds,320,2013-03-28 17:54:00
2:54 PM,45.0,30.9,58,30.02,10.0,NNW,11.5,17.3,N/A,,Clear,340,2013-03-28 18:54:00
3:54 PM,46.0,30.9,56,30.02,10.0,NNW,10.4,-,N/A,,Mostly Cloudy,340,2013-03-28 19:54:00
4:54 PM,46.0,30.0,54,30.02,10.0,NNW,6.9,-,N/A,,Mostly Cloudy,340,2013-03-28 20:54:00
5:54 PM,45.0,30.0,56,30.03,10.0,NNW,6.9,-,N/A,,Clear,340,2013-03-28 21:54:00
6:54 PM,42.1,30.0,62,30.04,10.0,Calm,Calm,-,N/A,,Overcast,0,2013-03-28 22:54:00
7:54 PM,36.0,28.0,73,30.05,10.0,Calm,Calm,-,N/A,,Overcast,0,2013-03-28 23:54:00
8:54 PM,35.1,28.9,78,30.06,10.0,Calm,Calm,-,N/A,,Overcast,0,2013-03-29 00:54:00
9:54 PM,34.0,28.9,82,30.07,10.0,Calm,Calm,-,N/A,,Overcast,0,2013-03-29 01:54:00
10:54 PM,33.1,28.9,85,30.08,10.0,Calm,Calm,-,N/A,,Overcast,0,2013-03-29 02:54:00
11:54 PM,35.1,28.9,78,30.07,10.0,SSE,3.5,-,N/A,,Overcast,150,2013-03-29 03:54:00